Wind_Speed
6 6 7 7 7 7 8 8 8 7 7 7 7 7 7 6 6 6 6 6 6 6 5 5 5 5 5 6 6 6 6 6 6 6 6 6 6 6 6 6 6 5 5
6 6 6 6 6 6 6 6 6 6 6 7 7 6 6 6 6 6 6 6 5 5 5 4 4 5 4 5 5 6 6 6 6 6 6 6 6 5 5 5 6 5 6
7 7 6 6 5 5 5 5 4 5 5 6 6 6 5 5 5 4 4 4 4 4 4 4 4 3 3 4 4 5 5 5 6 5 5 5 5 4 4 5 5 5 6
7 6 6 6 5 5 5 5 5 4 4 5 5 5 5 4 4 4 4 3 3 3 3 3 3 3 4 4 4 4 4 4 5 5 5 5 5 5 5 6 6 7 7
6 6 6 6 6 6 6 6 5 5 5 5 5 5 5 4 4 3 3 3 3 3 3 3 3 3 3 3 4 5 5 4 5 5 5 5 5 6 6 7 7 7 7
6 6 6 6 6 6 6 6 5 5 5 5 5 5 5 4 4 4 4 4 3 3 3 3 3 3 3 4 4 4 5 5 5 5 5 6 6 6 7 7 7 7 6
6 6 6 6 6 6 6 5 5 5 5 5 5 5 4 4 4 4 4 4 4 4 4 4 3 4 4 4 5 5 5 5 5 5 6 6 7 7 7 7 7 7 7
6 5 6 5 5 6 6 6 6 5 5 5 5 5 5 5 5 4 4 4 4 4 4 4 4 4 4 5 5 6 6 6 6 6 7 6 7 7 7 7 7 7 7
6 6 6 5 6 5 5 5 6 6 5 5 6 6 6 5 5 5 5 4 5 4 4 4 4 4 4 5 6 6 6 6 7 7 7 7 7 7 7 8 8 8 8
6 6 5 5 5 5 5 4 5 5 5 5 6 6 6 6 6 6 5 5 5 5 5 5 5 5 5 6 6 6 7 7 7 8 8 8 8 8 8 8 8 8 8
6 6 6 5 4 5 5 5 5 6 6 6 6 7 7 7 7 6 5 5 5 5 5 5 5 6 6 6 7 7 7 6 7 8 8 8 9 9 9 9 8 8 9
7 7 6 5 5 5 5 5 6 6 6 7 7 7 7 7 7 6 5 5 5 5 5 5 5 5 5 6 6 6 6 7 7 8 8 8 8 9 9 9 9 9 9
8 7 6 6 6 6 6 6 6 6 6 6 7 6 6 6 7 6 6 6 6 7 7 6 5 5 5 6 6 6 6 7 8 8 8 9 9 8 9 9 9 10 10
8 8 8 7 7 7 7 7 6 6 6 6 6 6 7 7 7 7 7 6 6 7 7 6 7 6 6 7 7 7 8 8 8 8 8 8 8 9 10 10 10 11 12
9 9 9 9 8 8 8 7 7 7 6 6 6 7 7 7 8 8 7 7 8 8 7 7 7 7 8 8 8 8 8 8 9 9 9 10 10 10 11 12 12 13 14
11 11 10 10 10 9 9 9 8 8 8 7 8 7 7 8 8 9 9 9 8 8 8 8 9 9 9 9 9 9 10 10 10 10 10 10 11 11 12 14 15 15 16
13 12 12 11 11 10 10 10 10 9 9 9 8 8 8 8 9 9 9 9 9 9 10 10 10 10 10 10 10 10 11 12 12 12 12 13 13 14 14 15 16 17 17
14 14 13 12 12 11 11 11 11 11 10 10 10 9 9 10 9 9 9 9 9 10 11 11 11 11 11 11 11 12 13 13 13 14 14 15 15 15 16 17 17 18 19
14 14 14 13 13 12 12 12 12 12 11 11 11 11 11 10 10 10 10 10 10 11 11 11 12 12 12 12 13 13 14 14 15 16 16 16 17 17 18 19 19 20 20
16 15 14 14 14 13 13 13 13 13 13 13 12 12 12 12 12 11 12 12 12 12 12 12 13 13 13 13 14 15 15 16 16 17 18 19 19 19 20 20 21 21 22
18 17 16 16 15 15 15 15 14 14 14 14 14 14 13 13 14 14 14 13 14 14 14 14 14 14 15 15 16 16 17 17 18 19 20 20 21 22 22 22 22 22 23
19 19 18 17 17 17 16 16 16 15 16 16 15 15 15 15 15 16 16 16 16 16 16 16 16 17 17 17 17 18 18 19 20 20 21 22 23 23 23 23 24 24 25
21 20 20 19 19 19 18 17 17 16 16 17 17 17 17 17 18 18 18 18 18 18 18 18 18 19 19 20 20 20 20 20 21 22 23 24 24 24 25 25 26 27 27
23 22 21 21 20 20 19 19 18 19 19 19 19 19 19 19 19 19 19 20 20 20 20 20 20 21 21 21 21 21 21 22 23 23 24 25 26 26 27 27 27 28 29
24 24 23 22 21 21 21 20 20 21 21 21 21 21 21 21 21 21 21 21 22 22 22 22 22 22 22 22 22 22 24 24 25 25 26 27 28 28 28 28 29 30 30
26 25 24 24 23 23 22 22 22 22 22 22 22 22 22 23 23 23 22 23 24 23 23 23 23 23 24 24 24 25 25 26 27 28 28 29 29 29 29 30 30 31 31
Wind_Direction
290 288 288 284 286 286 284 279 272 269 267 259 256 261 265 266 265 270 273 264 271 273 269 268 267 265 262 256 249 239 242 248 250 252 255 261 261 253 257 261 264 265 274
295 290 294 287 287 290 296 287 272 264 258 255 257 262 270 265 266 271 278 265 267 272 263 261 264 262 258 249 241 236 242 251 252 253 254 260 256 249 250 258 261 263 275
304 293 287 289 285 291 298 292 280 264 258 253 255 255 259 264 265 265 272 273 266 263 256 260 254 252 246 241 239 239 241 250 252 254 256 254 250 256 259 265 265 272 280
309 298 290 285 282 286 295 299 279 264 263 260 256 251 258 268 267 269 278 283 267 251 255 260 251 244 241 238 242 253 248 251 256 256 256 259 257 265 267 272 275 278 281
312 304 294 291 287 280 282 289 287 269 265 256 252 261 261 257 257 267 278 281 279 255 256 267 260 251 244 240 250 253 257 255 253 256 258 263 264 269 275 277 277 277 276
307 308 299 291 289 284 280 281 278 270 260 256 258 260 259 255 252 256 269 278 275 262 261 266 270 262 252 250 256 259 262 257 256 259 263 267 271 279 281 279 277 274 273
303 306 305 299 294 286 279 274 273 267 261 255 254 258 254 254 251 252 267 277 279 269 265 265 270 263 258 255 259 262 264 261 259 262 266 270 273 278 278 275 271 272 273
301 306 309 305 303 292 281 275 274 272 260 255 251 247 252 253 253 255 260 269 274 273 266 268 270 269 264 265 263 266 265 267 266 267 268 271 277 276 274 273 270 272 275
304 306 308 305 308 302 293 283 274 270 263 265 257 251 252 256 254 255 258 264 270 273 277 277 266 264 267 274 274 273 271 274 274 275 270 274 278 277 276 277 273 275 278
305 306 307 302 302 301 295 283 276 275 269 268 262 260 257 261 257 254 255 259 260 264 272 271 268 265 272 281 282 279 278 278 278 280 276 277 278 276 276 276 276 276 279
301 298 302 303 303 303 298 286 278 272 268 266 265 263 262 259 258 259 255 253 254 260 266 271 277 279 280 282 283 281 277 278 281 282 283 282 278 278 277 278 280 279 279
299 300 296 296 300 300 294 289 280 272 269 266 263 263 261 259 256 255 253 257 252 256 266 276 279 281 285 287 290 286 280 279 282 284 287 286 284 280 280 280 280 279 280
293 294 292 289 291 294 293 292 286 278 271 267 263 256 254 257 256 258 256 257 257 259 266 270 271 277 285 289 287 284 285 290 289 287 288 289 286 283 282 281 281 282 283
285 289 289 287 287 288 286 285 280 275 270 269 263 253 253 258 262 262 257 260 266 267 267 269 272 278 282 288 284 281 287 292 291 290 290 291 289 285 285 286 286 285 286
277 281 283 284 285 286 280 273 273 272 270 265 260 254 254 257 261 263 261 266 271 269 271 273 275 282 284 286 289 287 288 290 290 287 286 286 287 287 288 288 287 287 288
273 276 280 281 280 280 276 268 268 268 264 264 258 257 257 260 262 261 262 268 269 270 271 271 273 279 282 285 288 285 286 290 291 289 287 286 287 289 292 291 289 289 290
267 272 277 277 277 275 271 266 265 263 260 260 264 263 258 261 263 263 264 265 267 269 272 274 279 280 280 282 282 283 285 287 288 287 286 286 286 287 289 290 290 290 290
266 268 272 274 272 272 270 267 264 261 260 259 261 262 264 265 265 264 265 268 268 272 272 273 279 281 281 282 283 283 283 285 285 286 286 286 288 290 291 291 292 293 293
265 267 267 270 270 270 268 266 263 260 259 259 261 261 263 264 263 261 265 267 271 274 275 278 280 282 283 283 283 286 287 286 286 285 286 288 290 291 290 292 293 293 293
262 262 263 267 269 270 268 265 261 259 258 257 259 260 260 258 258 261 265 270 273 274 277 278 279 281 283 285 284 285 287 288 287 287 287 289 291 292 291 291 292 293 293
262 261 262 265 266 268 267 265 261 258 257 256 255 255 257 257 257 261 266 269 273 275 278 278 279 281 283 285 286 286 287 288 289 288 288 288 290 291 291 291 291 292 293
261 260 261 263 264 265 265 265 262 259 257 256 255 255 258 261 262 264 265 268 272 275 276 278 279 281 282 283 286 288 289 288 288 289 289 289 290 292 292 291 291 291 293
259 259 260 260 262 264 263 263 260 258 257 257 257 258 259 260 263 265 266 270 273 275 274 274 277 280 282 283 285 286 288 289 290 290 289 288 289 291 291 292 292 292 291
257 257 258 258 260 262 262 260 258 256 257 258 258 259 260 262 265 266 267 269 271 273 274 274 276 279 282 283 285 285 287 289 290 289 289 289 289 289 290 291 291 292 292
255 256 255 255 257 260 261 260 258 258 258 259 258 259 261 263 265 267 269 270 271 272 274 275 277 279 280 282 283 285 286 288 288 289 289 289 289 290 290 290 291 293 294
257 256 254 253 254 256 258 258 258 259 259 259 258 259 261 264 266 267 268 270 272 273 274 277 279 281 281 281 282 284 285 286 287 288 288 289 290 290 290 291 292 293 295
Height
5859 5858 5858 5858 5857 5856 5856 5855 5855 5855 5855 5855 5855 5855 5855 5855 5855 5855 5855 5855 5855 5854 5854 5854 5854 5854 5854 5854 5854 5854 5855 5855 5855 5855 5855 5855 5855 5855 5855 5855 5854 5854 5854
5857 5857 5856 5856 5856 5855 5854 5854 5853 5853 5853 5854 5854 5854 5854 5854 5854 5854 5853 5853 5853 5853 5853 5853 5853 5853 5853 5853 5853 5853 5853 5854 5854 5854 5854 5854 5855 5854 5854 5853 5853 5853 5852
5855 5855 5855 5855 5854 5854 5853 5852 5852 5852 5852 5852 5852 5852 5853 5853 5853 5852 5852 5852 5852 5852 5852 5852 5852 5852 5852 5852 5852 5852 5852 5852 5853 5853 5853 5853 5853 5853 5853 5852 5852 5851 5850
5854 5853 5853 5853 5853 5853 5852 5851 5851 5851 5851 5851 5851 5851 5852 5852 5852 5851 5851 5851 5851 5851 5851 5851 5851 5851 5851 5851 5851 5851 5851 5851 5851 5852 5852 5852 5852 5852 5851 5851 5850 5850 5849
5853 5852 5852 5852 5851 5851 5851 5851 5850 5850 5850 5850 5850 5850 5851 5851 5851 5851 5851 5851 5851 5850 5850 5850 5850 5850 5850 5850 5850 5850 5850 5850 5850 5851 5851 5850 5850 5850 5850 5850 5849 5848 5848
5851 5851 5850 5850 5850 5850 5850 5850 5849 5849 5849 5849 5849 5850 5850 5850 5850 5850 5850 5850 5850 5850 5850 5850 5849 5849 5849 5850 5849 5849 5849 5849 5849 5849 5849 5849 5849 5849 5848 5848 5847 5847 5846
5850 5850 5849 5849 5849 5849 5848 5848 5848 5848 5848 5848 5848 5849 5849 5849 5849 5849 5849 5849 5849 5849 5849 5849 5848 5848 5848 5848 5848 5848 5848 5848 5848 5848 5848 5848 5847 5847 5846 5846 5845 5845 5844
5849 5849 5848 5848 5847 5847 5847 5847 5847 5847 5847 5847 5847 5848 5848 5848 5848 5848 5848 5848 5848 5848 5848 5848 5847 5847 5847 5847 5847 5847 5847 5847 5847 5847 5846 5846 5845 5845 5844 5844 5844 5843 5842
5848 5848 5847 5847 5846 5846 5845 5845 5845 5845 5846 5846 5846 5846 5847 5847 5847 5847 5847 5847 5847 5847 5847 5846 5846 5846 5846 5846 5846 5845 5845 5845 5845 5845 5844 5844 5843 5843 5842 5842 5841 5841 5840
5847 5846 5846 5845 5845 5845 5844 5844 5844 5844 5844 5844 5845 5845 5845 5846 5846 5846 5846 5846 5846 5845 5845 5845 5845 5845 5845 5844 5844 5844 5844 5843 5843 5843 5842 5842 5841 5841 5840 5839 5839 5838 5838
5846 5845 5844 5844 5844 5843 5843 5843 5843 5843 5843 5843 5843 5843 5843 5844 5844 5844 5844 5844 5844 5844 5844 5844 5844 5843 5843 5843 5843 5842 5842 5842 5841 5841 5840 5840 5839 5838 5838 5837 5836 5836 5835
5844 5843 5843 5842 5842 5842 5841 5841 5841 5841 5841 5841 5841 5841 5841 5841 5842 5842 5842 5842 5843 5843 5842 5842 5842 5842 5842 5841 5841 5841 5840 5840 5839 5839 5838 5837 5837 5836 5835 5834 5834 5833 5832
5842 5842 5841 5841 5841 5840 5840 5840 5839 5839 5839 5839 5839 5839 5839 5840 5840 5840 5840 5841 5841 5841 5841 5841 5841 5841 5840 5840 5839 5839 5838 5838 5837 5836 5836 5835 5834 5833 5832 5832 5831 5830 5829
5840 5840 5839 5839 5839 5838 5838 5838 5837 5837 5837 5837 5837 5837 5838 5838 5838 5838 5839 5839 5839 5839 5839 5839 5839 5839 5838 5838 5837 5837 5836 5836 5835 5834 5833 5832 5832 5831 5830 5829 5828 5827 5826
5837 5837 5837 5836 5836 5836 5836 5836 5835 5835 5835 5835 5835 5835 5836 5836 5836 5837 5837 5837 5837 5837 5837 5837 5837 5836 5836 5836 5835 5835 5834 5833 5832 5832 5831 5830 5829 5828 5827 5826 5825 5824 5822
5835 5835 5834 5834 5833 5833 5833 5833 5833 5833 5833 5833 5833 5833 5834 5834 5834 5835 5835 5835 5835 5835 5835 5835 5834 5834 5834 5833 5833 5832 5831 5831 5830 5829 5828 5827 5826 5825 5824 5822 5821 5820 5818
5831 5831 5831 5830 5830 5830 5830 5830 5830 5830 5830 5831 5831 5831 5831 5832 5832 5832 5832 5832 5832 5832 5832 5832 5831 5831 5831 5830 5830 5829 5828 5828 5827 5825 5824 5823 5822 5821 5820 5818 5817 5815 5813
5827 5827 5827 5827 5827 5827 5827 5827 5827 5827 5827 5828 5828 5828 5828 5829 5829 5829 5829 5829 5829 5829 5829 5829 5828 5828 5827 5827 5826 5826 5825 5824 5823 5822 5820 5819 5818 5817 5815 5814 5812 5810 5808
5823 5823 5823 5824 5823 5823 5823 5823 5824 5824 5824 5824 5825 5825 5825 5826 5826 5826 5826 5826 5826 5826 5825 5825 5824 5824 5824 5823 5822 5822 5821 5820 5818 5817 5816 5815 5813 5812 5810 5808 5807 5805 5803
5818 5819 5819 5819 5820 5820 5819 5820 5820 5820 5820 5821 5821 5821 5822 5822 5822 5823 5823 5822 5822 5822 5822 5821 5821 5820 5820 5819 5818 5817 5816 5815 5814 5812 5811 5810 5808 5806 5804 5803 5801 5799 5797
5813 5814 5814 5815 5815 5815 5815 5815 5815 5816 5816 5816 5817 5817 5817 5818 5818 5818 5819 5818 5818 5818 5817 5817 5816 5816 5815 5814 5814 5812 5811 5810 5809 5807 5806 5804 5802 5801 5798 5796 5795 5792 5790
5808 5808 5809 5809 5810 5810 5810 5810 5811 5811 5811 5812 5812 5812 5813 5813 5814 5814 5814 5814 5814 5813 5813 5812 5812 5811 5810 5809 5808 5807 5806 5804 5803 5801 5800 5798 5796 5794 5792 5790 5788 5786 5783
5801 5802 5803 5803 5804 5804 5804 5805 5805 5806 5806 5807 5807 5808 5808 5808 5808 5809 5808 5808 5808 5808 5807 5807 5806 5805 5804 5803 5802 5801 5800 5798 5797 5795 5793 5791 5789 5787 5785 5783 5780 5778 5775
5794 5795 5796 5797 5797 5798 5798 5799 5799 5800 5800 5801 5801 5802 5802 5802 5803 5803 5802 5802 5802 5802 5801 5801 5800 5799 5798 5797 5796 5794 5793 5792 5790 5788 5786 5784 5782 5779 5777 5775 5772 5770 5767
5787 5788 5788 5789 5791 5791 5792 5792 5793 5794 5794 5795 5795 5796 5796 5796 5796 5796 5796 5796 5796 5795 5795 5794 5793 5793 5792 5790 5789 5788 5786 5784 5782 5780 5778 5776 5774 5771 5769 5766 5764 5761 5758
5778 5779 5780 5782 5783 5784 5785 5785 5786 5787 5787 5788 5788 5789 5789 5789 5789 5789 5789 5788 5788 5788 5787 5787 5786 5785 5784 5783 5782 5780 5778 5776 5774 5772 5770 5767 5765 5762 5760 5757 5755 5752 5749